Flag for Puerto Rico Weather past 2 weeks in San Juan, Puerto Rico

Now
82 °F

Broken clouds.


Feels Like: 89 °F
Forecast: 81 / 88 °F
Wind: 6 mph from Southeast

Location: Luis Munoz Marin

Current Time: Jul 2, 2015 at 8:59:52 AM

Latest Report: Jul 2, 2015 at 7:56 AM


Visibility: 9 mi

Pressure: 30.09 "Hg

Humidity: 79%

Dew point: 75 °F

Location of San JuanLocation

Historic Weather in San Juan — Graph

°F

San Juan temperature yesterday

Maximum temperature yesterday: 87 °F (at 12:56 PM)
Minimum temperature yesterday: 77 °F (at 3:56 AM)
Average temperature yesterday: 82 °F

Past Weeks' High & Low Weather Summary

 TemperatureHumidityPressure
High91 °F (Jun 19, 12:56 PM)97% (Jun 17, 7:56 AM)30.17 "Hg (Jun 17, 7:56 AM)
Low75 °F (Jun 22, 3:04 PM)52% (Jun 27, 1:56 PM)30.00 "Hg (Jun 19, 3:56 PM)
Average83 °F78%30.09 "Hg
* Reported Jun 17 7:56 AM — Jul 2 7:56 AM, San Juan, Weather by CustomWeather, © 2015

Note: Actual official high and low records may vary slightly from our data, if they occured in-between our weather recording intervals... More about our weather records

Advertising

San Juan weather history for previous 24 hours

 ConditionsComfort  
Time TempWeatherWind HumidityBarometerVisibility
7:56 AM
Thu, Jul 2
82 °FBroken clouds.6 mph79%30.09 "Hg9 mi
6:56 AM80 °FBroken clouds.5 mph81%30.08 "Hg9 mi
5:56 AM80 °FPassing clouds.5 mph79%30.08 "Hg9 mi
4:56 AM80 °FPassing clouds.8 mph81%30.06 "Hg10 mi
3:56 AM80 °FPassing clouds.14 mph81%30.06 "Hg10 mi
2:56 AM80 °FPassing clouds.6 mph81%30.06 "Hg10 mi
1:56 AM79 °FPassing clouds.6 mph84%30.07 "Hg10 mi
12:56 AM80 °FPassing clouds.6 mph79%30.09 "Hg10 mi
11:56 PM
Wed, Jul 1
81 °FPassing clouds.8 mph77%30.10 "Hg10 mi
10:56 PM81 °FPassing clouds.14 mph79%30.10 "Hg10 mi
9:56 PM81 °FPassing clouds.12 mph82%30.09 "Hg10 mi
8:56 PM81 °FPassing clouds.7 mph82%30.08 "Hg10 mi
7:56 PM82 °FScattered clouds.10 mph77%30.07 "Hg10 mi
6:56 PM83 °FScattered clouds.14 mph74%30.07 "Hg10 mi
5:56 PM85 °FScattered clouds.16 mph68%30.05 "Hg10 mi
4:56 PM86 °FScattered clouds.20 mph63%30.05 "Hg10 mi
3:56 PM86 °FScattered clouds.16 mph75%30.06 "Hg10 mi
2:56 PM87 °FScattered clouds.17 mph69%30.06 "Hg10 mi
1:56 PM87 °FPassing clouds.16 mph69%30.07 "Hg9 mi
12:56 PM87 °FScattered clouds.15 mph67%30.10 "Hg9 mi
11:56 AM86 °FScattered clouds.13 mph72%30.11 "Hg9 mi
10:56 AM84 °FScattered clouds.17 mph74%30.11 "Hg10 mi
9:56 AM82 °FScattered clouds.13 mph85%30.13 "Hg10 mi
8:56 AM82 °FScattered clouds.14 mph85%30.12 "Hg10 mi
Weather by CustomWeather, © 2015

See weather overviewHow to use our weather pages